User: anonymous   Login
Location: Unspecified
(0.0000°N, 0.0000°E)
Time: 07:24:59
(UTC+00:00)
Language:

OBJECT V - Orbit

View from above orbital plane
View from above orbital plane
View from above satellite
View from above satellite

Ground track
Ground track

The orbit data is extracted from the following two-line orbital elements,

1 43130U 18004V   18051.84433827  .00000679  00000-0  32637-4 0  9995
2 43130  97.5494 114.1391 0011313 138.9555 221.2535 15.22225698  6015
Epoch (UTC): 20 February 2018 20:15:50
Eccentricity: 0.0011313
inclination: 97.5494°
perigee height: 491 km
apogee height: 507 km
right ascension of ascending node: 114.1391°
argument of perigee: 138.9555°
revolutions per day: 15.22225698
mean anomaly at epoch: 221.2535°
orbit number at epoch: 601

The dashed part of the orbit path shows where the satellite is in the earth's shadow,  

DLR